TimeCDT,TemperatureF,Dew PointF,Humidity,Sea Level PressureIn,VisibilityMPH,Wind Direction,Wind SpeedMPH,Gust SpeedMPH,PrecipitationIn,Events,Conditions,WindDirDegrees,DateUTC
12:54 AM,37.9,28.9,70,30.33,10.0,NNW,3.5,-,N/A,,Clear,340,2012-10-27 05:54:00
1:54 AM,37.0,28.9,73,30.34,10.0,NNW,3.5,-,N/A,,Clear,330,2012-10-27 06:54:00
2:54 AM,37.0,28.9,73,30.32,10.0,North,4.6,-,N/A,,Clear,350,2012-10-27 07:54:00
3:54 AM,37.0,28.0,70,30.30,10.0,North,4.6,-,N/A,,Clear,10,2012-10-27 08:54:00
4:54 AM,37.0,28.0,70,30.31,10.0,North,10.4,-,N/A,,Clear,10,2012-10-27 09:54:00
5:54 AM,35.1,28.0,76,30.33,10.0,NW,4.6,-,N/A,,Clear,310,2012-10-27 10:54:00
6:54 AM,34.0,27.0,75,30.34,10.0,Calm,Calm,-,N/A,,Clear,0,2012-10-27 11:54:00
7:54 AM,33.1,27.0,78,30.34,10.0,NNW,3.5,-,N/A,,Clear,330,2012-10-27 12:54:00
8:54 AM,37.4,28.4,70,30.34,10.0,NNW,6.9,-,N/A,,Partly Cloudy,340,2012-10-27 13:54:00
9:54 AM,39.9,30.0,68,30.36,10.0,North,5.8,-,N/A,,Clear,10,2012-10-27 14:54:00
10:54 AM,43.0,30.0,60,30.34,10.0,North,8.1,-,N/A,,Clear,10,2012-10-27 15:54:00
11:54 AM,46.0,30.9,56,30.33,10.0,North,10.4,-,N/A,,Scattered Clouds,350,2012-10-27 16:54:00
12:54 PM,48.0,28.9,48,30.30,10.0,NNE,5.8,17.3,N/A,,Clear,30,2012-10-27 17:54:00
1:54 PM,48.9,30.9,50,30.27,10.0,NW,6.9,-,N/A,,Clear,320,2012-10-27 18:54:00
2:54 PM,50.0,30.0,46,30.26,10.0,NW,11.5,-,N/A,,Scattered Clouds,310,2012-10-27 19:54:00
3:54 PM,50.0,30.0,46,30.24,10.0,NNW,9.2,-,N/A,,Mostly Cloudy,330,2012-10-27 20:54:00
4:54 PM,48.0,28.9,48,30.25,10.0,NNW,10.4,-,N/A,,Mostly Cloudy,340,2012-10-27 21:54:00
5:54 PM,46.9,28.9,50,30.25,10.0,North,9.2,-,N/A,,Clear,350,2012-10-27 22:54:00
6:54 PM,45.0,28.9,53,30.26,10.0,North,5.8,-,N/A,,Clear,360,2012-10-27 23:54:00
7:54 PM,44.1,28.0,53,30.26,10.0,North,5.8,-,N/A,,Clear,10,2012-10-28 00:54:00
8:54 PM,42.1,28.9,60,30.26,10.0,North,5.8,-,N/A,,Clear,10,2012-10-28 01:54:00
9:54 PM,39.9,28.9,65,30.27,10.0,North,3.5,-,N/A,,Clear,350,2012-10-28 02:54:00
10:54 PM,36.0,28.9,76,30.27,10.0,Calm,Calm,-,N/A,,Clear,0,2012-10-28 03:54:00
11:54 PM,33.1,28.0,82,30.28,10.0,Calm,Calm,-,N/A,,Clear,0,2012-10-28 04:54:00